"Pseudo-MPEC" for P21DGMn

Created 2023 Mar 28 7:22:16 UT using Find_Orb

Click here for an explanation of pseudo-MPECs

 
 Astrometry: 
     P21DGMn* C2023 03 193jyQosED8Bf,HyYgd*(K[JJXL1_$^sH^$=W$;oF'VHZi6DC@'nU]F52
     P21DGMn  C2023 03 19?;kk!IPNqhRhE0)oVe%%En;Dk5K`E.Y%#$pXMF`x49f4#I]Z4b_ZF52
     P21DGMn  C2023 03 190T$!C);h7tmnRM%3W-CA*mX[@#;*1s+T!wmujbN.i-MVeZ7bUu/3F52
     P21DGMn  C2023 03 219k-p`7'4v56w2^MWFU?ibFy'Z6jieyVXDcN+T/sQy/(1GUBG0b6MF52
     P21DGMn  C2023 03 21bjTCAstrometryZD2Fxi$redacted;B,-'al;dt'1PIY:eIgN9BKF52
     P21DGMn  C2023 03 21t@]@xa3+BNw@qa:xLD+click9g/oH@BCXa8oKESVBsN]hL/f(o%pF52
     P21DGMn  C2023 03 21$`?Lb`I+r?m04I65niEjhere=sM+F]K(,Qx07r\y2+_*K,n9forUF52
     P21DGMn 1C2023 03 22.04653 14 39 57.81 +19 08 52.6    ~3M7M 22.1 VXNEOCP033
     P21DGMn 1C2023 03 22.05011 14 39 58.39 +19 08 53.5    ~3M7M 22.4 VXNEOCP033
     P21DGMn 1C2023 03 22.05369 14 39 58.92 +19 08 54.6    ~3M7M 22.7 VXNEOCP033
     P21DGMn  C2023 03 25*($NNnkGvPG3!P?,(OCew2K\pPBeiwIrUwFJhmro3tERZM'$(lUnF52
     P21DGMn  C2023 03 25qkeG3*7dS/@QUjsjlqW@/DjXL63@.X_Ukil0CUPNdtGg98u3/^4SF52
     P21DGMn  C2023 03 25NFY4Sl968\\H%8x-rUCjH\e\EIJRQJ1I^P+WfCnexplanationHEF52
     P21DGMn  C2023 03 25M:C[=o6:_^P$tu'xMXI^[-W184Q5\TZ0nWk1'??VCnRJl%\;#u)oF52

Station data:
(033) Karl Schwarzschild Observatory, Tautenburg  (N50.980137 E11.711240)
   Germany.  Observers S. Melnikov, C. Hoegner, B. Stecklum. Measurer B.
   Stecklum. 1.34-m f/3 Schmidt + CCD.
(F52) Pan-STARRS 2, Haleakala  (N20.707382 W156.255910)  US/Hawaii.
   Observers J. Bulger, T. Dukes, T. Lowe, A. Schultz, M. Willman. Measurers
   K. Chambers, S. Chastel, T. de Boer, L. Denneau, J. Fairlamb, H.
   Flewelling, M. Huber, C.-C. Lin, E. Magnier, Y. Ramanjooloo, R. Wainscoat,
   R. Weryk. 1.8-m Ritchey-Chrétien + CCD.

Orbital elements:  P21DGMn
   Perihelion 2023 Mar 15.55957 +/- 0.0678 TT = 13:25:46 (JD 2460019.05957)
Epoch 2023 Mar 25.0 TT = JDT 2460028.5   Earth MOID: 0.2032      AutoNEOCP
M   2.94414118 +/- 0.030            (J2000 ecliptic)
n   0.31186505 +/- 0.00537          Peri.   53.46892 +/- 0.16
a   2.15356625 +/- 0.0247           Node   126.12098 +/- 0.14
e   0.4564537 +/- 0.00549           Incl.    7.01409 +/- 0.06
P   3.16                   H 24.02  G  0.15   U  9.2
q 1.17056291 +/- 0.00161    Q 3.13656959 +/- 0.0478
From 14 observations 2023 Mar. 19-25; mean residual 0".20
Residuals in arcseconds: 
230319 F52  .11-  .02-    230321 F52  .09-  .16+    230325 F52  .26+  .46-    
230319 F52  .02+  .01+    230321 F52  .13-  .18+    230325 F52  .52-  .04-    
230319 F52  .10+  .01-    230322 033  .27-  .04-    230325 F52  .10+  .19+    
230321 F52  .19+  .19-    230322 033  .32+  .13-    230325 F52  .16+  .30+    
230321 F52  .02-  .08-    230322 033  .20+  .02-    

Ephemerides (geocentric):
Date (UTC) HH   RA             Dec           delta  r     elong  mag " sig PA
---- --------  ------------   ------------  ------ ------ -----  --- --------
2023 03 28 07  14 54 59.257   +19 24 30.99  .23181 1.1785 137.2 22.7 .945 134
2023 03 28 08  14 55 04.573   +19 24 32.05  .23185 1.1786 137.2 22.7 .962 134
2023 03 28 09  14 55 09.880   +19 24 33.04  .23188 1.1786 137.2 22.7 .979 134
2023 03 28 10  14 55 15.177   +19 24 33.96  .23192 1.1787 137.2 22.7 1.00 134
2023 03 28 11  14 55 20.465   +19 24 34.81  .23196 1.1787 137.2 22.7 1.01 135
2023 03 28 12  14 55 25.743   +19 24 35.60  .23200 1.1788 137.2 22.7 1.03 135
2023 03 28 13  14 55 31.013   +19 24 36.32  .23203 1.1788 137.2 22.7 1.05 135
2023 03 28 14  14 55 36.273   +19 24 36.97  .23207 1.1789 137.2 22.7 1.07 135
2023 03 28 15  14 55 41.524   +19 24 37.56  .23211 1.1789 137.2 22.7 1.09 135
2023 03 28 16  14 55 46.765   +19 24 38.08  .23215 1.1790 137.2 22.7 1.10 136
2023 03 28 17  14 55 51.997   +19 24 38.53  .23219 1.1790 137.2 22.7 1.12 136
2023 03 28 18  14 55 57.220   +19 24 38.91  .23222 1.1791 137.2 22.7 1.14 136
2023 03 28 19  14 56 02.434   +19 24 39.23  .23226 1.1791 137.2 22.7 1.16 136
2023 03 28 20  14 56 07.638   +19 24 39.47  .23230 1.1792 137.2 22.7 1.18 136
2023 03 28 21  14 56 12.834   +19 24 39.66  .23234 1.1792 137.2 22.7 1.20 137
2023 03 28 22  14 56 18.019   +19 24 39.77  .23238 1.1793 137.2 22.7 1.21 137
2023 03 28 23  14 56 23.196   +19 24 39.82  .23242 1.1794 137.2 22.7 1.23 137
2023 03 29 00  14 56 28.363   +19 24 39.79  .23245 1.1794 137.2 22.7 1.25 137
2023 03 29 01  14 56 33.521   +19 24 39.71  .23249 1.1795 137.2 22.7 1.27 137
2023 03 29 02  14 56 38.670   +19 24 39.55  .23253 1.1795 137.2 22.7 1.29 138
2023 03 29 03  14 56 43.810   +19 24 39.33  .23257 1.1796 137.3 22.7 1.31 138
2023 03 29 04  14 56 48.940   +19 24 39.03  .23261 1.1796 137.3 22.7 1.33 138
2023 03 29 05  14 56 54.061   +19 24 38.68  .23265 1.1797 137.3 22.7 1.35 138
2023 03 29 06  14 56 59.173   +19 24 38.25  .23269 1.1797 137.3 22.7 1.37 138
2023 03 29 07  14 57 04.275   +19 24 37.76  .23273 1.1798 137.3 22.7 1.39 138
2023 03 29 08  14 57 09.369   +19 24 37.20  .23277 1.1798 137.3 22.7 1.41 139
2023 03 29 09  14 57 14.453   +19 24 36.57  .23281 1.1799 137.3 22.7 1.43 139
2023 03 29 10  14 57 19.527   +19 24 35.88  .23285 1.1800 137.3 22.7 1.45 139
2023 03 29 11  14 57 24.593   +19 24 35.11  .23289 1.1800 137.3 22.7 1.47 139
2023 03 29 12  14 57 29.649   +19 24 34.29  .23293 1.1801 137.3 22.7 1.49 139
2023 03 29 13  14 57 34.696   +19 24 33.39  .23297 1.1801 137.3 22.7 1.51 139
2023 03 29 14  14 57 39.734   +19 24 32.42  .23301 1.1802 137.3 22.7 1.54 140
2023 03 29 15  14 57 44.762   +19 24 31.39  .23305 1.1802 137.3 22.7 1.56 140
2023 03 29 16  14 57 49.781   +19 24 30.30  .23309 1.1803 137.3 22.7 1.58 140
2023 03 29 17  14 57 54.791   +19 24 29.13  .23313 1.1804 137.3 22.7 1.60 140
2023 03 29 18  14 57 59.792   +19 24 27.90  .23317 1.1804 137.3 22.7 1.62 140
2023 03 29 19  14 58 04.784   +19 24 26.60  .23321 1.1805 137.3 22.7 1.64 140
2023 03 29 20  14 58 09.766   +19 24 25.23  .23325 1.1805 137.3 22.7 1.67 140
2023 03 29 21  14 58 14.739   +19 24 23.79  .23329 1.1806 137.3 22.7 1.69 141
2023 03 29 22  14 58 19.703   +19 24 22.29  .23333 1.1806 137.3 22.7 1.71 141
2023 03 29 23  14 58 24.658   +19 24 20.72  .23337 1.1807 137.4 22.7 1.73 141
2023 03 30 00  14 58 29.603   +19 24 19.09  .23342 1.1808 137.4 22.7 1.75 141
2023 03 30 01  14 58 34.539   +19 24 17.38  .23346 1.1808 137.4 22.7 1.78 141
2023 03 30 02  14 58 39.466   +19 24 15.61  .23350 1.1809 137.4 22.7 1.80 141
2023 03 30 03  14 58 44.384   +19 24 13.78  .23354 1.1809 137.4 22.7 1.82 142
2023 03 30 04  14 58 49.292   +19 24 11.87  .23358 1.1810 137.4 22.7 1.85 142
2023 03 30 05  14 58 54.192   +19 24 09.90  .23362 1.1811 137.4 22.7 1.87 142
2023 03 30 06  14 58 59.082   +19 24 07.86  .23367 1.1811 137.4 22.7 1.89 142